[[{"header":{"parameterUnit":"m.s-1","parameterCategory":1,"la1":30.2991,"la2":30.254,"lo1":-89.0895,"lo2":-89.0444,"dy":0.0017,"dx":0.0017,"nx":28,"ny":28,"refTime":"2025-09-05T21:00:00:Z","depth":0,"parameterNumber":2,"parameterNumberName":"U-component_of_WINDS"},"data":[0,0,0,0,0,0,0,0,0,0,0,0,0,0,0,0,0,0,0,0,0,0,0,0,0,0,0,0,0,0,0,0,0,0,0,0,0,0,0,0,0,0,0,0,0,0,0,0,0,0,0,0,0,0,0,0,0,0,0.7403,0.7402,0,0.7353,0.7353,0.7352,0.7301,0.73,0.73,0.7299,0.7247,0.7246,0.7246,0,0,0,0,0,0,0,0,0,0,0,0,0,0.7452,0.7451,0.7403,0.7402,0.7402,0.7353,0.7353,0.7352,0.7301,0.73,0.7299,0.7299,0.7247,0.7246,0.7245,0,0,0,0,0,0,0,0,0,0,0,0,0,0.7419,0.7451,0.7403,0.737,0.7367,0.7353,0.7353,0.7352,0.7301,0.73,0.7299,0.7298,0.7247,0.7246,0.7245,0.7259,0,0,0.7242,0.7241,0,0,0,0,0,0,0,0,0.7421,0.7417,0.7376,0.7373,0.7369,0.7332,0.7351,0.7321,0.7302,0.7326,0.7299,0.7298,0.7276,0.7273,0.7265,0.7257,0.7255,0.7242,0.7241,0.7241,0.724,0,0,0,0,0,0,0,0.7423,0.7419,0.7383,0.7375,0.7371,0.7358,0.7352,0.7345,0.7308,0.7324,0.732,0.7315,0.7274,0.7267,0.7264,0.7254,0.7242,0.7241,0.724,0.724,0.7253,0.7254,0,0,0,0,0,0,0.7431,0.7422,0.7385,0.7382,0.7393,0.7358,0.7351,0.7345,0.7307,0.7301,0.7316,0.7313,0.7269,0.7265,0.7262,0.7275,0.7241,0.724,0.7239,0.7252,0.7253,0.7254,0,0,0,0,0,0,0.7432,0.7428,0.7387,0.74,0.7394,0.7358,0.7351,0.7345,0.7337,0.7301,0.7294,0.7315,0.7268,0.7263,0.726,0.7272,0.7239,0.7238,0.7251,0.7252,0.7254,0.7301,0,0,0,0,0,0,0.7434,0.7429,0.7434,0.7401,0.7394,0.7386,0.7352,0.7344,0.7336,0.7331,0.7299,0.7293,0.7267,0.7262,0.7259,0.727,0.7237,0.7249,0.7251,0.7253,0.7299,0.7304,0.7309,0,0,0,0,0,0.7436,0.745,0.7435,0.7431,0.74,0.7387,0.7383,0.7353,0.7337,0.7341,0.7318,0.7294,0.7272,0.7262,0.7258,0.7269,0.7249,0.7251,0.7253,0.7296,0.7303,0.7309,0,0,0,0,0,0,0.7485,0.7445,0.7428,0.7432,0.7413,0.7379,0.7384,0.7362,0.7347,0.7344,0.7307,0.73,0.7301,0.7285,0.7275,0.728,0.7257,0.7258,0.7291,0.7297,0.7302,0.7306,0.7236,0,0,0,0,0,0.7496,0.749,0.7455,0.7462,0.7453,0.742,0.7414,0.7392,0.7372,0.7364,0.734,0.7321,0.7309,0.7302,0.729,0.7296,0.7288,0.7302,0.7307,0.7312,0.7313,0.7314,0.7319,0.7262,0.7262,0.7262,0,0,0.752,0.7497,0.7495,0.7471,0.7454,0.7448,0.7414,0.7409,0.7403,0.7363,0.7358,0.734,0.7316,0.7317,0.7317,0.7304,0.7327,0.7315,0.7319,0.7317,0.7317,0.7322,0.7327,0.7263,0.7263,0.7263,0,0,0.7558,0.7541,0.7544,0.7528,0.7503,0.7481,0.7482,0.7451,0.7437,0.7432,0.7401,0.7394,0.7375,0.7359,0.7348,0.738,0.7356,0.7377,0.7405,0.7406,0.7411,0.7414,0.7425,0.7429,0.7379,0.7379,0.7379,0,0.759,0.7579,0.7548,0.7545,0.7534,0.7498,0.75,0.7486,0.7458,0.7452,0.7438,0.7413,0.7394,0.7391,0.7398,0.7391,0.739,0.738,0.7413,0.7416,0.7419,0.7428,0.7433,0.7382,0.7381,0.7381,0.7381,0,0.7619,0.7612,0.7618,0.7592,0.7582,0.7582,0.755,0.7544,0.7524,0.7503,0.7497,0.7474,0.7455,0.7453,0.7433,0.7446,0.7439,0.742,0.7395,0.7428,0.7436,0.7439,0.7385,0.7384,0.7384,0.7383,0,0,0.7687,0.7644,0.7646,0.7633,0.7603,0.7597,0.7595,0.7577,0.7572,0.7554,0.755,0.7535,0.7517,0.7505,0.7483,0.7484,0.7509,0.7464,0.7463,0.7472,0.7521,0.7535,0.7539,0.7494,0.7495,0.7495,0.7522,0,0.7719,0.7713,0.7684,0.7686,0.7678,0.7643,0.7641,0.7622,0.7603,0.7593,0.7571,0.756,0.7538,0.753,0.753,0.7506,0.7518,0.7504,0.7489,0.7489,0.7495,0.7544,0.7558,0.7585,0.7525,0.7526,0.7526,0,0.7756,0.774,0.7741,0.7711,0.7707,0.7705,0.7686,0.7678,0.7655,0.764,0.7627,0.7602,0.7597,0.7575,0.7566,0.7557,0.7549,0.7536,0.7537,0.7533,0.7509,0.754,0.7593,0.7597,0.7531,0.7531,0.7531,0,0.7803,0.7783,0.7781,0.7771,0.7736,0.7735,0.772,0.7697,0.7688,0.7671,0.7664,0.7647,0.7638,0.7625,0.7595,0.7582,0.7589,0.7565,0.7576,0.7577,0.7578,0.7578,0.763,0.7576,0.7576,0.7576,0.7576,0,0.7842,0.7843,0.7801,0.78,0.78,0.7768,0.7769,0.775,0.773,0.7723,0.7692,0.7687,0.7649,0.7639,0.7617,0.7612,0.7608,0.7596,0.7589,0.7598,0.7599,0.7591,0.7588,0.7577,0.7576,0.7576,0.7576,0,0.7894,0.7867,0.7861,0.7828,0.782,0.7822,0.7793,0.779,0.7768,0.7761,0.7757,0.7723,0.771,0.768,0.7658,0.7643,0.7643,0.7633,0.7651,0.7647,0.7659,0.7658,0.7706,0.771,0.7655,0.7656,0.7656,0,0.792,0.792,0.7887,0.7881,0.7867,0.7858,0.7848,0.7816,0.7807,0.7781,0.7781,0.7765,0.7751,0.7731,0.7704,0.7687,0.7675,0.7693,0.7672,0.768,0.7673,0.7673,0.7672,0.7697,0.7698,0.7699,0.7699,0,0.7968,0.7954,0.7942,0.7925,0.7914,0.7899,0.7882,0.7879,0.7842,0.7834,0.782,0.7809,0.7787,0.7771,0.775,0.7734,0.771,0.7706,0.7708,0.7715,0.7725,0.7719,0.7662,0.7705,0.7704,0.7704,0.7704,0.7703,0.8007,0.8005,0.7981,0.7968,0.7952,0.7937,0.7932,0.7911,0.7898,0.7878,0.786,0.7848,0.7824,0.7793,0.7779,0.7768,0.7756,0.7759,0.7759,0.776,0.7763,0.7728,0.7764,0.7764,0.7764,0.7764,0.7763,0,0.8052,0.8035,0.8024,0.8001,0.799,0.797,0.795,0.7943,0.7932,0.7913,0.7899,0.7882,0.7867,0.7839,0.7821,0.7817,0.7806,0.7814,0.7813,0.7809,0.7775,0.7775,0.7823,0.7823,0.7823,0.7823,0.7823,0.7823,0.8074,0.8069,0.8053,0.804,0.8023,0.8011,0.8001,0.7986,0.797,0.7953,0.794,0.7923,0.7899,0.7879,0.7864,0.7856,0.785,0.7861,0.7849,0.7817,0.7812,0.7806,0.7806,0.786,0.786,0.7884,0.7884,0.7885]},{"header":{"parameterUnit":"m.s-1","parameterCategory":1,"la1":30.2991,"la2":30.254,"lo1":-89.0895,"lo2":-89.0444,"dy":0.0017,"dx":0.0017,"nx":28,"ny":28,"refTime":"2025-09-05T21:00:00:Z","depth":0,"parameterNumber":3,"parameterNumberName":"V-component_of_WINDS"},"data":[0,0,0,0,0,0,0,0,0,0,0,0,0,0,0,0,0,0,0,0,0,0,0,0,0,0,0,0,0,0,0,0,0,0,0,0,0,0,0,0,0,0,0,0,0,0,0,0,0,0,0,0,0,0,0,0,0,0,-1.565,-1.565,0,-1.5685,-1.5685,-1.5685,-1.5688,-1.5688,-1.5687,-1.5687,-1.5723,-1.5725,-1.5726,0,0,0,0,0,0,0,0,0,0,0,0,0,-1.5587,-1.5588,-1.565,-1.5651,-1.5651,-1.5685,-1.5685,-1.5686,-1.5688,-1.5688,-1.5687,-1.5687,-1.5723,-1.5724,-1.5726,0,0,0,0,0,0,0,0,0,0,0,0,0,-1.5618,-1.5589,-1.565,-1.5656,-1.5657,-1.5685,-1.5685,-1.5686,-1.5688,-1.5688,-1.5687,-1.5687,-1.5722,-1.5724,-1.5726,-1.575,0,0,-1.5732,-1.5733,0,0,0,0,0,0,0,0,-1.5616,-1.562,-1.5655,-1.5656,-1.5657,-1.5681,-1.5676,-1.5707,-1.5688,-1.5676,-1.5687,-1.5686,-1.571,-1.5713,-1.5721,-1.5752,-1.5753,-1.5732,-1.5734,-1.5735,-1.5735,0,0,0,0,0,0,0,-1.5614,-1.5618,-1.5664,-1.5655,-1.5657,-1.5658,-1.5661,-1.5682,-1.5696,-1.5677,-1.5678,-1.5682,-1.571,-1.5719,-1.5722,-1.5754,-1.5732,-1.5734,-1.5735,-1.5736,-1.5806,-1.5807,0,0,0,0,0,0,-1.561,-1.5617,-1.5663,-1.5665,-1.5635,-1.5659,-1.5663,-1.5674,-1.5696,-1.5699,-1.5682,-1.5682,-1.5716,-1.5719,-1.5723,-1.5752,-1.5734,-1.5736,-1.5737,-1.5806,-1.5806,-1.5807,0,0,0,0,0,0,-1.5609,-1.5614,-1.5661,-1.5641,-1.5647,-1.5661,-1.5673,-1.5675,-1.5684,-1.5699,-1.5702,-1.5688,-1.5715,-1.572,-1.5743,-1.5753,-1.5737,-1.5739,-1.5805,-1.5806,-1.5807,-1.581,0,0,0,0,0,0,-1.5607,-1.5614,-1.5623,-1.5641,-1.5648,-1.5681,-1.5674,-1.5676,-1.5687,-1.5687,-1.5706,-1.5708,-1.5715,-1.574,-1.5745,-1.5756,-1.5741,-1.5804,-1.5805,-1.5806,-1.5809,-1.5811,-1.5813,0,0,0,0,0,-1.5605,-1.5622,-1.5623,-1.5629,-1.5659,-1.5681,-1.5685,-1.5693,-1.5688,-1.5697,-1.5707,-1.5708,-1.5751,-1.5743,-1.5748,-1.5759,-1.5803,-1.5805,-1.5806,-1.5808,-1.5811,-1.5813,0,0,0,0,0,0,-1.5605,-1.5625,-1.5626,-1.565,-1.5664,-1.5682,-1.5693,-1.5695,-1.5711,-1.571,-1.5719,-1.5723,-1.5746,-1.5755,-1.5745,-1.5784,-1.5777,-1.578,-1.5777,-1.5779,-1.5781,-1.5778,-1.5742,0,0,0,0,0,-1.5608,-1.5624,-1.5641,-1.566,-1.5667,-1.5679,-1.5689,-1.5693,-1.5708,-1.5714,-1.5726,-1.5741,-1.5758,-1.5769,-1.5786,-1.5811,-1.5815,-1.5821,-1.5823,-1.5825,-1.5827,-1.5841,-1.5843,-1.5812,-1.5812,-1.5812,0,0,-1.5614,-1.5627,-1.5636,-1.5661,-1.5672,-1.5688,-1.5684,-1.5702,-1.5714,-1.5717,-1.5739,-1.5749,-1.5766,-1.579,-1.5801,-1.5798,-1.5836,-1.5827,-1.5828,-1.5829,-1.5842,-1.5845,-1.5848,-1.5813,-1.5813,-1.5813,0,0,-1.5633,-1.5645,-1.5662,-1.5674,-1.5691,-1.5699,-1.5703,-1.5721,-1.5727,-1.5749,-1.5752,-1.5768,-1.5797,-1.5809,-1.5819,-1.5843,-1.5844,-1.5849,-1.5858,-1.5871,-1.5874,-1.5876,-1.5884,-1.5887,-1.5851,-1.5851,-1.5851,0,-1.5638,-1.5663,-1.5671,-1.5688,-1.5699,-1.5703,-1.572,-1.5731,-1.5753,-1.5761,-1.5757,-1.5794,-1.5806,-1.5833,-1.5839,-1.5847,-1.5852,-1.5846,-1.5873,-1.5875,-1.5877,-1.5885,-1.5888,-1.5851,-1.5851,-1.5851,-1.5851,0,-1.5669,-1.5686,-1.5698,-1.5718,-1.5731,-1.5748,-1.5759,-1.577,-1.5774,-1.5783,-1.5806,-1.582,-1.584,-1.5847,-1.5851,-1.5875,-1.5872,-1.5871,-1.5864,-1.588,-1.5888,-1.5891,-1.5852,-1.5851,-1.5851,-1.5851,0,0,-1.5688,-1.5713,-1.5717,-1.5727,-1.5746,-1.576,-1.5778,-1.5797,-1.5806,-1.5822,-1.5837,-1.5862,-1.5861,-1.5872,-1.5878,-1.589,-1.5908,-1.5887,-1.5887,-1.589,-1.5935,-1.5935,-1.5938,-1.5909,-1.591,-1.591,-1.5933,0,-1.5709,-1.574,-1.5748,-1.5775,-1.5791,-1.5795,-1.5811,-1.5825,-1.5834,-1.5849,-1.5859,-1.5876,-1.5873,-1.588,-1.5892,-1.5903,-1.5917,-1.5902,-1.5923,-1.5924,-1.5918,-1.5943,-1.5943,-1.5964,-1.5936,-1.5937,-1.5937,0,-1.5737,-1.5753,-1.5781,-1.5799,-1.5806,-1.582,-1.5838,-1.5852,-1.5868,-1.5874,-1.5887,-1.5891,-1.5911,-1.5904,-1.5931,-1.592,-1.593,-1.5937,-1.5938,-1.5939,-1.5931,-1.5944,-1.5971,-1.5974,-1.5942,-1.5941,-1.5941,0,-1.5748,-1.5776,-1.5797,-1.5805,-1.5826,-1.5836,-1.5845,-1.5861,-1.5872,-1.5888,-1.5895,-1.5913,-1.5923,-1.5938,-1.5947,-1.5941,-1.5973,-1.5967,-1.5978,-1.5978,-1.5984,-1.5983,-1.6012,-1.5991,-1.5991,-1.5991,-1.5991,0,-1.577,-1.5787,-1.5801,-1.5814,-1.5834,-1.5843,-1.5862,-1.5872,-1.5886,-1.5901,-1.5906,-1.592,-1.5932,-1.5948,-1.5956,-1.5977,-1.5981,-1.5986,-1.5988,-1.5985,-1.5985,-1.5991,-1.599,-1.5992,-1.5992,-1.5992,-1.5992,0,-1.5784,-1.5795,-1.5817,-1.5836,-1.5841,-1.5855,-1.587,-1.5883,-1.5892,-1.5911,-1.5916,-1.593,-1.5949,-1.596,-1.5984,-1.599,-1.6013,-1.6014,-1.6007,-1.6008,-1.6018,-1.6017,-1.6051,-1.6056,-1.6033,-1.6033,-1.6033,0,-1.5797,-1.581,-1.583,-1.584,-1.585,-1.5866,-1.5877,-1.5887,-1.5899,-1.5919,-1.5929,-1.5948,-1.5964,-1.5994,-1.6007,-1.6025,-1.6027,-1.6038,-1.6029,-1.6026,-1.6026,-1.6025,-1.6026,-1.6038,-1.6039,-1.6039,-1.6039,0,-1.5818,-1.5823,-1.5839,-1.5857,-1.587,-1.5884,-1.5899,-1.5907,-1.592,-1.5932,-1.5952,-1.5964,-1.5988,-1.6007,-1.6027,-1.6037,-1.604,-1.6042,-1.6045,-1.6042,-1.6037,-1.6039,-1.601,-1.6041,-1.604,-1.604,-1.604,-1.604,-1.5832,-1.5844,-1.586,-1.5877,-1.5889,-1.5903,-1.5916,-1.5926,-1.5942,-1.5963,-1.5968,-1.5988,-1.6005,-1.6031,-1.6042,-1.6058,-1.6056,-1.6062,-1.6063,-1.6064,-1.6064,-1.6035,-1.6062,-1.6062,-1.6062,-1.6062,-1.6062,0,-1.5853,-1.5864,-1.588,-1.59,-1.5914,-1.5916,-1.5932,-1.5943,-1.5961,-1.5976,-1.5991,-1.6013,-1.6032,-1.6047,-1.6066,-1.6076,-1.6078,-1.6081,-1.608,-1.6082,-1.6064,-1.6059,-1.6079,-1.6079,-1.6079,-1.6079,-1.6079,-1.6079,-1.5866,-1.5886,-1.5893,-1.592,-1.593,-1.5949,-1.5959,-1.5971,-1.5983,-1.6008,-1.6023,-1.6032,-1.6047,-1.6068,-1.6085,-1.6089,-1.6095,-1.6098,-1.6102,-1.6085,-1.6083,-1.6081,-1.6076,-1.6099,-1.6099,-1.6118,-1.6118,-1.6118]}]]